Tracking 35331 objects as of 15-Sep-2026
HD Live streaming from Space Station
objects crossing your sky now

COSMOS 1204 DEB


COSMOS 1204 DEB is no longer on orbit


NORAD ID: 12038
Int'l Code: 1980-067Q
Launch date: July 31, 1980
Source: Commonwealth of Independent States (former USSR) (CIS)
Launch site: KAPUSTIN YAR MISSILE AND SPACE COMPLEX (KYMTR)
Decay date: 1980-11-18

Note: This is SATELLITE DEBRIS
Your satellite tracking list
Your tracking list is empty




NASA's NSSDC Master Catalog

Two Line Element Set (TLE):
1 12038U 80067  Q 80321.21676539  .03150107 +66925-5 +59839-2 0  9994
2 12038 050.6771 212.6079 0051916 218.9025 140.8230 15.97324648016732
Source of the keplerian elements: AFSPC